| time (UTC) | temp F | wind direction | speed MPH | gust MPH | rain 1hr in | rain 24hr in | rain mn in | humidity % | barometer mb |
| 20260507083034 | 45 | 100 | 6.0 | 11.0 | 0.03 | 1.61 | 0.22 | 95 | 1013.6 |
| 20260507081531 | 45 | 73 | 5.0 | 9.0 | 0.01 | 1.58 | 0.20 | 95 | 1013.6 |
| 20260507080030 | 45 | 50 | 4.0 | 9.0 | 0.00 | 1.57 | 0.19 | 96 | 1013.4 |
| 20260507074527 | 45 | 53 | 2.0 | 8.0 | 0.00 | 1.59 | 0.19 | 96 | 1013.2 |
| 20260507073027 | 45 | 73 | 4.0 | 8.0 | 0.00 | 1.59 | 0.19 | 96 | 1013.0 |
| 20260507071524 | 45 | 79 | 5.0 | 8.0 | 0.00 | 1.59 | 0.19 | 96 | 1013.0 |
| 20260507070028 | 45 | 63 | 3.0 | 7.0 | 0.00 | 1.59 | 0.19 | 96 | 1012.8 |
| 20260507064521 | 45 | 42 | 6.0 | 9.0 | 0.00 | 1.63 | 0.19 | 96 | 1012.6 |
| 20260507063019 | 45 | 49 | 3.0 | 8.0 | 0.00 | 1.63 | 0.19 | 96 | 1012.5 |
| 20260507061517 | 45 | 52 | 4.0 | 7.0 | 0.00 | 1.63 | 0.19 | 96 | 1012.2 |
| 20260507060015 | 45 | 34 | 6.0 | 11.0 | 0.03 | 1.63 | 0.19 | 96 | 1012.0 |
| 20260507054519 | 45 | 34 | 6.0 | 12.0 | 0.07 | 1.70 | 0.19 | 96 | 1011.8 |
| 20260507053012 | 45 | 41 | 6.0 | 10.0 | 0.13 | 1.70 | 0.19 | 96 | 1011.7 |
| 20260507051510 | 45 | 84 | 6.0 | 9.0 | 0.14 | 1.70 | 0.19 | 96 | 1011.4 |
| 20260507050008 | 45 | 72 | 7.0 | 14.0 | 0.13 | 1.67 | 0.16 | 96 | 1011.4 |
| 20260507044506 | 45 | 61 | 9.0 | 14.0 | 0.10 | 1.65 | 0.12 | 96 | 1011.1 |
| 20260507043006 | 45 | 53 | 6.0 | 11.0 | 0.04 | 1.58 | 0.06 | 96 | 1011.0 |
| 20260507041601 | 45 | 59 | 10.0 | 13.0 | 0.03 | 1.57 | 0.05 | 96 | 1010.9 |
| 20260507040100 | 46 | 55 | 6.0 | 12.0 | 0.02 | 1.56 | 0.03 | 96 | 1010.8 |
| 20260507034557 | 46 | 48 | 5.0 | 10.0 | 0.01 | 1.56 | 0.02 | 96 | 1010.7 |
| 20260507033057 | 46 | 56 | 7.0 | 10.0 | 0.01 | 1.56 | 0.02 | 96 | 1010.6 |
| 20260507031549 | 46 | 20 | 6.0 | 9.0 | 0.01 | 1.56 | 0.02 | 96 | 1010.5 |
| 20260507030047 | 46 | 52 | 5.0 | 9.0 | 0.00 | 1.55 | 0.01 | 96 | 1010.5 |
| 20260507024548 | 47 | 38 | 5.0 | 7.0 | 0.00 | 1.58 | 0.01 | 96 | 1010.3 |
| 20260507023048 | 47 | 55 | 5.0 | 9.0 | 0.00 | 1.58 | 0.01 | 96 | 1010.3 |
| 20260507021544 | 47 | 52 | 4.0 | 8.0 | 0.00 | 1.58 | 0.01 | 96 | 1010.1 |
| 20260507014540 | 47 | 58 | 5.0 | 7.0 | 0.00 | 1.62 | 0.01 | 96 | 1009.9 |
| 20260507013048 | 47 | 42 | 3.0 | 6.0 | 0.00 | 1.62 | 0.01 | 96 | 1009.8 |
| 20260507011537 | 47 | 40 | 2.0 | 5.0 | 0.00 | 1.62 | 0.01 | 96 | 1009.7 |
| 20260507010037 | 47 | 32 | 3.0 | 5.0 | 0.00 | 1.62 | 0.01 | 96 | 1009.8 |
| 20260507004538 | 47 | 34 | 4.0 | 7.0 | 0.00 | 1.87 | 0.01 | 96 | 1009.7 |
| 20260507003041 | 47 | 56 | 5.0 | 8.0 | 0.00 | 1.87 | 0.01 | 96 | 1009.5 |
| 20260507001533 | 47 | 42 | 5.0 | 8.0 | 0.00 | 1.87 | 0.01 | 96 | 1009.4 |
| 20260507000034 | 47 | 40 | 3.0 | 8.0 | 0.00 | 1.87 | 0.01 | 96 | 1009.3 |
| 20260506234529 | 47 | 47 | 6.0 | 8.0 | 0.00 | 1.93 | 0.01 | 96 | 1009.4 |
| 20260506233028 | 47 | 52 | 5.0 | 9.0 | 0.00 | 1.93 | 0.01 | 96 | 1009.3 |
| 20260506231526 | 47 | 24 | 7.0 | 11.0 | 0.01 | 1.93 | 0.01 | 96 | 1009.2 |
| 20260506230024 | 47 | 23 | 7.0 | 10.0 | 0.01 | 1.93 | 0.01 | 96 | 1009.2 |
| 20260506224522 | 47 | 24 | 6.0 | 10.0 | 0.01 | 2.04 | 0.01 | 96 | 1009.2 |
| 20260506223020 | 47 | 36 | 5.0 | 11.0 | 0.01 | 2.04 | 0.01 | 96 | 1009.0 |
| 20260506221519 | 47 | 29 | 6.0 | 10.0 | 0.00 | 2.02 | 0.00 | 96 | 1009.1 |
| 20260506220016 | 47 | 42 | 5.0 | 8.0 | 0.00 | 2.02 | 0.00 | 96 | 1009.0 |
| 20260506214524 | 47 | 34 | 5.0 | 8.0 | 0.00 | 2.50 | 2.02 | 96 | 1008.9 |
| 20260506213016 | 47 | 27 | 5.0 | 8.0 | 0.00 | 2.50 | 2.02 | 96 | 1008.8 |
| 20260506211511 | 47 | 21 | 5.0 | 8.0 | 0.00 | 2.50 | 2.02 | 96 | 1008.8 |
| 20260506210012 | 47 | 51 | 5.0 | 7.0 | 0.02 | 2.50 | 2.02 | 96 | 1008.6 |
| 20260506204509 | 47 | 52 | 5.0 | 7.0 | 0.07 | 2.98 | 2.02 | 96 | 1008.6 |
| 20260506203008 | 47 | 67 | 5.0 | 7.0 | 0.11 | 2.98 | 2.02 | 96 | 1008.6 |
| 20260506201509 | 47 | 40 | 5.0 | 9.0 | 0.12 | 2.98 | 2.02 | 96 | 1008.5 |
| 20260506200006 | 47 | 48 | 7.0 | 13.0 | 0.19 | 2.96 | 2.02 | 96 | 1008.4 |
| 20260506194505 | 47 | 61 | 8.0 | 12.0 | 0.14 | 3.29 | 1.96 | 96 | 1008.4 |
| 20260506193003 | 47 | 49 | 8.0 | 11.0 | 0.10 | 3.24 | 1.91 | 96 | 1008.2 |
| 20260506191600 | 47 | 48 | 7.0 | 10.0 | 0.16 | 3.24 | 1.91 | 96 | 1008.0 |
| 20260506184603 | 47 | 15 | 6.0 | 13.0 | 0.12 | 3.37 | 1.82 | 96 | 1007.7 |
| 20260506183103 | 47 | 50 | 6.0 | 12.0 | 0.12 | 3.35 | 1.80 | 96 | 1007.7 |
| 20260506181620 | 47 | 67 | 8.0 | 11.0 | 0.09 | 3.31 | 1.76 | 96 | 1007.5 |
| 20260506180053 | 47 | 45 | 6.0 | 15.0 | 0.08 | 3.28 | 1.73 | 96 | 1007.5 |
| 20260506174550 | 47 | 61 | 8.0 | 12.0 | 0.06 | 3.28 | 1.70 | 96 | 1007.1 |
| 20260506173058 | 47 | 36 | 7.0 | 12.0 | 0.07 | 3.27 | 1.69 | 96 | 1007.1 |
| 20260506171549 | 47 | 30 | 9.0 | 12.0 | 0.05 | 3.24 | 1.66 | 96 | 1007.1 |
| 20260506170050 | 47 | 48 | 7.0 | 10.0 | 0.05 | 3.24 | 1.65 | 96 | 1006.9 |
| 20260506164549 | 47 | 49 | 6.0 | 13.0 | 0.07 | 3.37 | 1.64 | 96 | 1007.0 |
| 20260506163050 | 47 | 23 | 7.0 | 11.0 | 0.09 | 3.35 | 1.61 | 96 | 1007.0 |
| 20260506161548 | 47 | 49 | 7.0 | 11.0 | 0.11 | 3.35 | 1.61 | 96 | 1007.1 |
| 20260506160052 | 47 | 41 | 7.0 | 14.0 | 0.11 | 3.34 | 1.61 | 96 | 1007.0 |
| 20260506154547 | 48 | 38 | 8.0 | 13.0 | 0.09 | 3.46 | 1.57 | 96 | 1007.1 |
| 20260506153106 | 47 | 39 | 4.0 | 11.0 | 0.07 | 3.42 | 1.53 | 96 | 1007.1 |
| 20260506151545 | 47 | 67 | 9.0 | 12.0 | 0.06 | 3.39 | 1.50 | 96 | 1007.1 |
| 20260506150053 | 47 | 33 | 7.0 | 11.0 | 0.05 | 3.39 | 1.50 | 96 | 1007.1 |
| 20260506144549 | 47 | 32 | 7.0 | 13.0 | 0.04 | 3.50 | 1.48 | 96 | 1007.1 |
| 20260506143042 | 47 | 21 | 7.0 | 10.0 | 0.07 | 3.47 | 1.45 | 96 | 1006.8 |
| 20260506141541 | 47 | 46 | 7.0 | 11.0 | 0.12 | 3.47 | 1.45 | 96 | 1006.9 |
| 20260506140041 | 47 | 40 | 7.0 | 12.0 | 0.18 | 3.47 | 1.45 | 96 | 1006.9 |
| 20260506134540 | 47 | 48 | 7.0 | 14.0 | 0.27 | 3.51 | 1.44 | 96 | 1006.8 |
| 20260506133042 | 47 | 53 | 9.0 | 13.0 | 0.27 | 3.45 | 1.38 | 96 | 1006.7 |
| 20260506131541 | 47 | 37 | 7.0 | 15.0 | 0.25 | 3.40 | 1.33 | 95 | 1006.7 |
| 20260506130038 | 47 | 51 | 8.0 | 14.0 | 0.22 | 3.34 | 1.27 | 95 | 1006.6 |
| 20260506124536 | 47 | 78 | 9.0 | 13.0 | 0.21 | 3.29 | 1.17 | 95 | 1006.6 |
| 20260506123037 | 47 | 55 | 9.0 | 14.0 | 0.17 | 3.23 | 1.11 | 95 | 1006.6 |
| 20260506121535 | 47 | 57 | 6.0 | 11.0 | 0.24 | 3.20 | 1.08 | 96 | 1006.4 |
| 20260506120039 | 47 | 73 | 11.0 | 15.0 | 0.20 | 3.17 | 1.05 | 96 | 1006.4 |
| 20260506114536 | 47 | 88 | 6.0 | 14.0 | 0.12 | 3.22 | 0.96 | 96 | 1006.4 |
| 20260506113040 | 47 | 70 | 7.0 | 14.0 | 0.09 | 3.17 | 0.91 | 96 | 1006.4 |
| 20260506111533 | 47 | 82 | 7.0 | 10.0 | 0.03 | 3.10 | 0.84 | 96 | 1006.4 |
| 20260506110033 | 46 | 72 | 7.0 | 11.0 | 0.04 | 3.10 | 0.84 | 96 | 1006.4 |
| 20260506104534 | 46 | 46 | 8.0 | 13.0 | 0.07 | 3.10 | 0.84 | 96 | 1006.4 |
| 20260506103031 | 46 | 71 | 8.0 | 12.0 | 0.06 | 3.08 | 0.82 | 96 | 1006.5 |
| 20260506101530 | 46 | 65 | 5.0 | 10.0 | 0.09 | 3.07 | 0.81 | 96 | 1006.3 |
| 20260506100028 | 45 | 64 | 10.0 | 13.0 | 0.10 | 3.06 | 0.80 | 96 | 1006.3 |
| 20260506094527 | 45 | 73 | 10.0 | 15.0 | 0.09 | 3.07 | 0.77 | 96 | 1006.3 |
| 20260506093025 | 45 | 63 | 7.0 | 14.0 | 0.10 | 3.06 | 0.76 | 96 | 1006.1 |
| 20260506091523 | 45 | 51 | 7.0 | 13.0 | 0.07 | 3.02 | 0.72 | 95 | 1006.2 |
| 20260506090024 | 45 | 75 | 8.0 | 13.0 | 0.06 | 3.00 | 0.70 | 96 | 1006.2 |
| 20260506084521 | 44 | 71 | 8.0 | 12.0 | 0.04 | 2.98 | 0.68 | 96 | 1006.2 |